Regional Weather Roundup
Issued by NWS

Home | Current Version | Previous Version | Text Only | Print | Product List | Glossary On
Versions: 1 2 3 4 5 6 7 8 9 10 11 12 13 14 15 16 17 18 19 20 21 22 23 24 25 26 27 28 29 30 31 32 33 34 35 36 37 38 39 40 41 42 43 44 45 46 47 48 49 50
000
ASUS44 KLIX 310911
RWRLA
LOUISIANA WEATHER ROUNDUP
NATIONAL WEATHER SERVICE NEW ORLEANS LA
400 AM CDT SUN JUL 31 2016

NOTE: "FAIR" INDICATES FEW OR NO CLOUDS BELOW 12,000 FEET WITH NO
      SIGNIFICANT WEATHER AND/OR OBSTRUCTIONS TO VISIBILITY.
      SKY/WX - SKY CONDITION AND SIGNIFICANT WEATHER.
      TMP - AIR TEMPERATURE.    DP   - DEWPOINT TEMPERATURE.
      RH  - RELATIVE HUMIDITY.  PRES - PRESSURE.
      HX  - HEAT INDEX.         WCI  - WIND CHILL INDEX.

*  THESE STATIONS ARE NOT NWS OR FAA STATIONS AND ARE NOT UNDER
   NWS QUALITY CONTROL.

LAZ040-048-061>063-065-066-069-311000-
SOUTHEAST LOUISIANA

CITY           SKY/WX    TMP DP  RH WIND       PRES   REMARKS
N.O. AUDUBON     N/A     82  78  89 MISG        N/A
N.O. INTL ARPT PTCLDY    81  76  84 CALM      30.00S
N.O. LAKEFRONT CLEAR     83  76  79 SW6       30.00S
N.O. DOWNTOWN* FAIR      83  76  79 S5        30.01S
RESERVE*       FAIR      77  75  93 CALM      30.00S FOG
SLIDELL        CLEAR     76  75  97 CALM      29.99F
BATON ROUGE    CLEAR     77  74  90 NE5       30.00R
BOOTHVILLE     CLEAR     81  74  79 CALM      30.00F
BELLE CHASSE   CLEAR     77  76  96 W3        30.00S
BOGALUSA*      FAIR      75  72  89 CALM      30.03S
GALLIANO*      MOSUNNY   71  71 100 CALM      30.00F
NEW ROADS*     FAIR      74  74  99 CALM      30.01R
GONZALES*      FAIR      76  76 100 CALM      30.00R
HAMMOND*       CLEAR     75  72  88 CALM      30.00S
HOUMA*         CLEAR     75  75  98 CALM      30.01R
PORT FOURCHON* SUNNY     84  77  79 SW6       30.00F

$$

LAZ041-044-053-054-311000-
SOUTHWEST LOUISIANA

CITY           SKY/WX    TMP DP  RH WIND       PRES   REMARKS
LAKE CHARLES   CLEAR     78  76  93 CALM      29.99S
LAFAYETTE      CLEAR     79  77  94 CALM      30.00S
PATTERSON      CLEAR     77  76  96 CALM      30.01S
SALT POINT       N/A     85  75  72 VRB3      29.98F
NEW IBERIA     CLEAR     77  75  93 CALM      30.01S
CHENAULT AIRPK MOCLDY    77  76  97 CALM      29.99F

$$

LAZ027-028-311000-
CENTRAL LOUISIANA

CITY           SKY/WX    TMP DP  RH WIND       PRES   REMARKS
FORT POLK      CLEAR     78  76  93 SW6       30.00S
ALEXANDRIA INT CLEAR     76  73  91 SE6       29.99S
ALEXANDRIA     CLEAR     74  74 100 CALM      30.00F

$$

LAZ001-002-311000-
NORTHWEST LOUISIANA

CITY           SKY/WX    TMP DP  RH WIND       PRES   REMARKS
SHREVEPORT     CLEAR     75  73  93 CALM      29.99R
BARKSDALE AFB  CLEAR     72  72 100 SE5       30.00R
DTN SHREVEPORT CLEAR     75  71  87 SE3       29.99S

$$

LAZ014-016-311000-
NORTHEAST LOUISIANA

CITY           SKY/WX    TMP DP  RH WIND       PRES   REMARKS
MONROE         PTCLDY    72  72 100 S5        30.00F
TALLULAH       MOCLDY    74  71  91 CALM      29.99S

$$




USA.gov is the U.S. government's official web portal to all federal, state and local government web resources and services.